Location: Stigler
(35.2540°N, 95.1230°W)
Time: 10:07:55
(UTC-06:00)

USA 234 - Pass Details

Date: 26 September 2017
Orbit: 1101 x 1107 km, 123.0° (Epoch: 25 November)

Event Time Altitude Azimuth Distance (km) Brightness Sun altitude
Rises 19:51:47 0° 138° (SE) 3,908 5.7 -9.1°
Reaches altitude 10° 19:54:15 10° 139° (SE) 2,952 5.1 -9.6°
Maximum altitude 20:00:47 82° 226° (SW) 1,114 3.4 -11.0°
Drops below altitude 10° 20:07:20 10° 315° (NW) 2,960 6.3 -12.3°
Sets 20:09:50 0° 316° (NW) 3,920 7.0 -12.8°
